Location: Gadern
(49.5873°N, 8.8138°E)
Time: 10:05:52
(UTC+00:00)

SeaSat 1 - Pass Details

Date: 19 May 2025
Orbit: 738 x 740 km, 108.0° (Epoch: 23 June)

Event Time Altitude Azimuth Distance (km) Brightness Sun altitude
Exits shadow 19:57:10 - 106° (ESE) 2,633 4.7 -7.1°
Reaches altitude 10° 19:58:16 10° 100° (E) 2,250 4.4 -7.2°
Maximum altitude 20:02:18 26° 44° (NE) 1,423 3.9 -7.7°
Drops below altitude 10° 20:06:20 10° 349° (NNW) 2,260 5.9 -8.2°
Sets 20:08:53 0° 337° (NNW) 3,188 7.2 -8.5°
